CST,Max TemperatureF,Mean TemperatureF,Min TemperatureF,Max Dew PointF,MeanDew PointF,Min DewpointF,Max Humidity, Mean Humidity, Min Humidity, Max Sea Level PressureIn, Mean Sea Level PressureIn, Min Sea Level PressureIn, Max VisibilityMiles, Mean VisibilityMiles, Min VisibilityMiles, Max Wind SpeedMPH, Mean Wind SpeedMPH, Max Gust SpeedMPH,PrecipitationIn, CloudCover, Events, WindDirDegrees
2010-1-1,52,43,34,46,39,29,100,72,44,30.38,30.27,30.17,10,9,4,18,8,25,0.16,5,Rain,351
2010-1-2,48,38,28,32,27,20,92,69,45,30.42,30.35,30.30,10,10,10,14,5,18,0.00,0,,344
2010-1-3,45,36,27,25,19,12,85,56,27,30.36,30.30,30.23,10,10,10,12,3,18,0.00,1,,22
2010-1-4,35,30,24,24,18,13,74,58,41,30.42,30.34,30.28,10,10,10,16,8,22,0.00,7,,339
2010-1-5,42,30,18,19,12,4,84,52,20,30.47,30.40,30.33,10,10,9,12,5,16,0.00,0,,321
2010-1-6,46,33,20,,,,,,,,,,,,,,,,0.00,,,
2010-1-7,47,38,29,40,35,17,100,82,63,30.28,30.17,30.12,10,6,2,21,6,28,0.26,7,Rain,346
2010-1-8,33,27,21,15,14,11,71,56,41,30.46,30.38,30.30,10,10,10,17,11,23,0.00,0,,336
2010-1-9,36,26,16,17,15,12,80,62,44,30.56,30.49,30.42,10,10,10,15,9,20,0.00,0,,343
2010-1-10,40,29,17,19,14,11,84,57,30,30.68,30.60,30.57,10,10,10,12,5,16,0.00,0,,336
2010-1-11,50,33,15,23,16,10,92,57,21,30.58,30.47,30.38,10,10,10,13,3,17,0.00,0,,252
2010-1-12,54,40,25,26,24,20,85,59,32,30.46,30.40,30.36,10,10,10,6,4,7,0.00,0,,335
2010-1-13,52,36,20,28,24,19,92,61,30,30.48,30.39,30.30,10,10,10,7,0,12,0.00,0,,5
2010-1-14,60,44,27,34,30,25,92,61,30,30.33,30.26,30.18,10,10,9,8,1,13,0.00,0,,93
2010-1-15,61,45,28,50,36,26,100,65,29,30.27,30.18,29.97,10,10,7,18,4,26,0.04,1,Rain,85
2010-1-16,62,58,53,61,56,50,100,92,83,30.03,29.77,29.63,10,7,2,18,8,25,0.25,8,Rain,108
2010-1-17,56,50,43,52,46,42,100,89,77,30.07,29.88,29.68,10,10,7,21,10,25,0.00,7,,273
2010-1-18,66,51,35,47,40,34,100,74,48,30.18,30.11,30.05,10,5,0,8,1,12,0.00,2,Fog,192
2010-1-19,71,54,36,51,45,36,100,72,44,30.13,30.06,29.97,10,6,0,13,4,15,0.00,4,Fog,153
2010-1-20,68,57,46,64,58,46,100,91,81,29.98,29.82,29.68,10,6,0,16,5,23,1.30,8,Fog-Rain-Thunderstorm,125
2010-1-21,77,62,48,66,58,39,100,82,30,29.78,29.64,29.58,10,9,2,17,8,25,0.21,5,Rain-Thunderstorm,199
2010-1-22,70,56,41,52,45,39,96,70,44,29.92,29.86,29.79,10,10,10,8,2,25,0.00,0,,336
2010-1-23,70,55,40,60,49,39,100,79,57,29.86,29.79,29.65,10,6,0,28,10,35,T,6,Fog-Rain,138
2010-1-24,70,61,52,67,56,36,67,51,34,29.71,29.57,29.49,10,9,3,22,8,30,0.37,6,Rain-Thunderstorm,222
2010-1-25,62,52,42,42,31,22,76,49,22,30.06,29.92,29.74,10,10,10,24,9,31,0.00,0,,271
2010-1-26,63,49,34,33,27,22,89,55,20,30.27,30.18,30.07,10,10,10,23,7,31,0.00,0,,276
2010-1-27,63,46,29,39,31,27,92,60,27,30.41,30.32,30.27,10,10,10,9,1,16,0.00,0,,116
2010-1-28,67,50,32,43,36,31,100,64,28,30.35,30.25,30.16,10,10,10,9,2,13,0.00,1,,112
2010-1-29,60,53,45,55,50,41,100,81,61,30.12,29.88,29.75,10,7,1,18,5,25,0.70,8,Rain,65
2010-1-30,48,40,32,45,34,26,96,87,78,30.20,29.99,29.84,10,10,9,20,11,25,0.00,8,,320
2010-1-31,50,40,30,33,28,26,92,67,42,30.31,30.25,30.20,10,10,9,13,5,16,0.00,4,,17